TimeMST,TemperatureF,Dew PointF,Humidity,Sea Level PressureIn,VisibilityMPH,Wind Direction,Wind SpeedMPH,Gust SpeedMPH,PrecipitationIn,Events,Conditions,WindDirDegrees,DateUTC
12:53 AM,33.1,10.9,40,30.00,10.0,West,10.4,16.1,N/A,,Clear,270,2012-12-28 07:53:00
1:53 AM,32.0,10.9,42,30.01,10.0,WNW,5.8,-,N/A,,Clear,300,2012-12-28 08:53:00
2:53 AM,32.0,10.9,42,30.04,10.0,WNW,5.8,-,N/A,,Clear,300,2012-12-28 09:53:00
3:53 AM,30.2,10.4,44,30.05,10.0,West,5.8,-,N/A,,Clear,270,2012-12-28 10:53:00
4:53 AM,30.0,10.9,45,30.08,10.0,WNW,5.8,-,N/A,,Clear,290,2012-12-28 11:53:00
5:53 AM,28.9,12.0,49,30.10,10.0,WNW,3.5,-,N/A,,Clear,290,2012-12-28 12:53:00
6:53 AM,27.0,12.0,53,30.13,10.0,Calm,Calm,-,N/A,,Clear,0,2012-12-28 13:53:00
7:53 AM,26.1,12.0,55,30.15,9.0,Calm,Calm,-,N/A,,Clear,0,2012-12-28 14:53:00
8:53 AM,28.9,12.9,51,30.17,10.0,Calm,Calm,-,N/A,,Clear,0,2012-12-28 15:53:00
9:53 AM,32.0,12.9,45,30.19,10.0,Calm,Calm,-,N/A,,Clear,0,2012-12-28 16:53:00
10:53 AM,34.0,12.9,42,30.20,10.0,North,4.6,-,N/A,,Clear,360,2012-12-28 17:53:00
11:53 AM,35.1,12.0,39,30.18,10.0,NNW,3.5,-,N/A,,Clear,340,2012-12-28 18:53:00
12:53 PM,37.0,12.9,37,30.16,10.0,Calm,Calm,-,N/A,,Clear,0,2012-12-28 19:53:00
1:53 PM,37.9,12.0,35,30.15,10.0,Variable,3.5,-,N/A,,Clear,0,2012-12-28 20:53:00
2:53 PM,37.9,10.9,33,30.15,10.0,Calm,Calm,-,N/A,,Clear,0,2012-12-28 21:53:00
3:53 PM,39.0,10.9,32,30.16,10.0,NE,5.8,-,N/A,,Clear,50,2012-12-28 22:53:00
4:53 PM,37.0,12.9,37,30.17,10.0,NE,3.5,-,N/A,,Clear,40,2012-12-28 23:53:00
5:53 PM,35.1,12.9,40,30.19,10.0,Calm,Calm,-,N/A,,Clear,0,2012-12-29 00:53:00
6:53 PM,34.0,12.9,42,30.21,10.0,Calm,Calm,-,N/A,,Clear,0,2012-12-29 01:53:00
7:53 PM,32.0,12.9,45,30.24,10.0,SSE,3.5,-,N/A,,Clear,150,2012-12-29 02:53:00
8:53 PM,30.9,12.9,47,30.25,10.0,South,3.5,-,N/A,,Clear,180,2012-12-29 03:53:00
9:53 PM,28.9,12.9,51,30.26,10.0,Calm,Calm,-,N/A,,Clear,0,2012-12-29 04:53:00
10:53 PM,27.0,14.0,58,30.26,10.0,ESE,5.8,-,N/A,,Clear,120,2012-12-29 05:53:00
11:53 PM,28.0,12.9,53,30.25,10.0,SE,4.6,-,N/A,,Clear,130,2012-12-29 06:53:00